Regional Weather Roundup
Issued by NWS

Home | Current Version | Previous Version | Text Only | Print | Product List | Glossary Off
Versions: 1 2 3 4 5 6 7 8 9 10 11 12 13 14 15 16 17 18 19 20 21 22 23 24 25 26 27 28 29 30 31 32 33 34 35 36 37 38 39 40 41 42 43 44 45 46 47 48 49 50

000
ASUS43 KIND 291059
RWRIN

WEATHER ROUNDUP FOR INDIANA
NATIONAL WEATHER SERVICE INDIANAPOLIS IN
700 AM EDT SUN MAR 29 2015

NOTE: "FAIR" INDICATES FEW OR NO CLOUDS BELOW 12,000 FEET WITH NO
SIGNIFICANT WEATHER AND/OR OBSTRUCTIONS TO VISIBILITY.

* - STATION DOES NOT REPORT WEATHER SUCH AS PRECIPITATION OR FOG.

+ - STATION NOT QUALITY CONTROLLED BY THE NATIONAL WEATHER SERVICE.
    USE DATA WITH CAUTION...ESPECIALLY DEWPOINT AND RELATIVE
    HUMIDITY OBSERVATIONS.

INZ001>003-010>013-019-020-291200-
NORTHWEST INDIANA

CITY           SKY/WX    TMP DP  RH WIND       PRES   REMARKS
GARY /AIRPORT/ CLEAR     30  12  47 S9        30.18F WCI  22

$$

LMZ046-743>745-291200-
SOUTHERN LAKE MICHIGAN

STATION/POSITION TIME  TEMP WIND        PRES
                       AIR  DIR/SP/G
                 (UTC) (F)  (DEG/KT/KT) (MB)
BURNS HARBOR     1000   29  180/ 13/ 17 1022.7F
MICHIGAN CITY    1000   28  150/ 11/ 15   N/A

$$

INZ004-005-014>016-021>024-291200-
NORTH CENTRAL INDIANA

CITY           SKY/WX    TMP DP  RH WIND       PRES   REMARKS
GOSHEN         CLEAR     26  16  65 S10       30.23F WCI  16
SOUTH BEND     PTCLDY    28  15  58 S12       30.21F WCI  18

$$

INZ006>009-017-018-025>027-291200-
NORTHEAST INDIANA

CITY           SKY/WX    TMP DP  RH WIND       PRES   REMARKS
ANGOLA *+      CLEAR     21  14  73 S5        30.24S WCI  15
FORT WAYNE     PTCLDY    24  17  74 S12       30.28R WCI  13

$$

INZ028-029-035-036-043>045-051>053-291200-
WEST CENTRAL INDIANA

CITY           SKY/WX    TMP DP  RH WIND       PRES   REMARKS
GREENCASTLE +  CLEAR     27  14  59 S8        30.26S WCI  18
LAFAYETTE      CLEAR     28  16  60 S8        30.24F WCI  20
TERRE HAUTE    CLEAR     27  17  66 S8        30.27R WCI  19

$$

INZ030>032-037>040-046>048-054>057-064-065-291200-
CENTRAL INDIANA

CITY           SKY/WX    TMP DP  RH WIND       PRES   REMARKS
GREENWOOD *+   CLEAR     25  14  63 SE8       30.28F WCI  16
INDIANAPOLIS   CLEAR     25  15  66 SE10      30.26F WCI  15
-EAGLE CREEK   CLEAR     26  14  60 S7        30.26F WCI  18
KOKOMO *+        N/A     27  18  69 S12       30.26S WCI  16
MT COMFORT *+  CLEAR     25  10  54 S8        30.28F WCI  16
SHELBYVILLE    CLEAR     27  17  66 SE10      30.28F WCI  17

$$

INZ033-034-041-042-049-050-058-059-291200-
EAST CENTRAL INDIANA

CITY           SKY/WX    TMP DP  RH WIND       PRES   REMARKS
MUNCIE         CLEAR     26  14  60 S9        30.27F WCI  17

$$

INZ060-061-067>069-081>083-085>088-291200-
SOUTHWEST INDIANA

CITY           SKY/WX    TMP DP  RH WIND       PRES   REMARKS
EVANSVILLE     CLEAR     31  19  61 SE3       30.30S
HUNTINGBURG *+ CLEAR     27  16  63 SE7       30.30S WCI  19

$$

INZ062-063-066-070>080-084-089>092-291200-
SOUTH CENTRAL AND SOUTHEAST INDIANA

CITY           SKY/WX    TMP DP  RH WIND       PRES   REMARKS
BLOOMINGTON    CLEAR     25  15  66 S7        30.27F WCI  17
SEYMOUR +      CLEAR     27  16  63 S6        30.32S WCI  20

$$




USA.gov is the U.S. government's official web portal to all federal, state and local government web resources and services.